Regional Weather Roundup
Issued by NWS Newport/Morehead, NC

Current Version | Previous Version | Graphics & Text | Print | Product List | Glossary Off
Versions: 1 2 3 4 5 6 7 8 9 10 11 12 13 14 15 16 17 18 19 20 21 22 23 24 25 26 27 28 29 30 31 32 33 34 35 36 37 38 39 40 41 42 43 44 45 46 47 48 49 50

828
ASUS42 KMHX 300013
RWRMHX
WEATHER ROUNDUP FOR EASTERN NORTH CAROLINA
NATIONAL WEATHER SERVICE NEWPORT/MOREHEAD CITY NC
800 PM EDT SAT APR 29 2017

NOTE: "FAIR" INDICATES FEW OR NO CLOUDS BELOW 12,000 FEET
WITH NO SIGNIFICANT WEATHER AND/OR OBSTRUCTIONS TO VISIBILITY

NCZ015>017-031-032-045>047-102-103-300100-
NORTH COAST

CITY           SKY/WX    TMP DP  RH WIND       PRES   REMARKS
EDENTON        CLEAR     83  73  73 S10       30.14R
ELIZABETH CITY CLEAR     81  75  82 S13       30.12S
KITTY HAWK     CLEAR     77  71  81 S7        30.14S
MANTEO         CLEAR     76  72  85 SW15      30.16R

$$

NCZ045>047-081-094-103-104-300100-
CENTRAL COAST

CITY           SKY/WX    TMP DP  RH WIND       PRES   REMARKS
FRISCO         CLEAR     75  71  87 SW13      30.19S FOG

$$

NCZ095-097-098-100-101-300100-
SOUTHERN COAST

CITY           SKY/WX    TMP DP  RH WIND       PRES   REMARKS
BEAUFORT       CLEAR     74  73  97 SW12      30.21R
CEDAR ISLAND   NOT AVBL
JACKSONVILLE   CLEAR     75  71  87 S9        30.18R
PINEY ISLAND   CLEAR    N/A N/A N/A S12       30.20R
WILMINGTON     CLEAR     76  69  79 S10G22    30.19R


$$

NCZ011>013-027>030-043-044-078>080-089-090>093-098-300100-
COASTAL PLAIN

CITY           SKY/WX    TMP DP  RH WIND       PRES   REMARKS
AHOSKIE          N/A     80  71  74 CALM      30.12S
CLINTON        CLEAR     79  72  78 S6        30.16R
ELIZABETHTOWN  CLEAR     78  69  73 S7        30.17S
GOLDSBORO      CLEAR     82  72  72 S6        30.13R
GREENVILLE     CLEAR     82  68  61 S7        30.15S
HAVELOCK       CLEAR     58  70 100 S10       30.20R
KENANSVILLE    CLEAR     79  70  73 CALM      30.17R
KINSTON        CLEAR     82  68  61 S10       30.16R
NEW BERN       CLEAR     77  70  79 S10G22    30.19R
RICHLANDS      CLEAR     77  71  82 S9        30.18R
ROCKY MOUNT    CLEAR     80  71  74 S3        30.13S
WASHINGTON     CLEAR     80  72  78 S6        30.15R
WHITEVILLE     CLEAR     77  70  79 S7        30.18R

$$

AMZ130-135-150-152-154-156-158-170-250-252-270-ANZ085-086-088-633-658-670-300100-
MARINE OBSERVATIONS

STATION/POSITION TIME  TEMP    WIND        PRES    WAVE   SWELL
                       AIR SEA DIR/SP/G            HT/PER HT/PER
                 (UTC) (F)     (DEG/KT/KT) (MB)    (FT/S) (FT/S)
CHESAPEAKE LIGHT NOT AVBL
64 E VA BEACH    2350   65 58  220/ 19/ 21 1019.9    4/ 6   2/ 7
DUCK             2342   79 58  210/ 15/ 19 1019.7
2 E DUCK         0000      61                N/A     2/ 7
OREGON INLET     2348          200/ 19/ 23 1021.2
13E OREGON INLT  2348      64                N/A     3/ 7   2/ 7
HATTERAS CG      2342   75 75  210/ 10/ 17 1022.0
DIAMOND BUOY     2350   76 76  220/ 16/ 17 1022.3    4/ 4   2/ 7
CAPE LOOKOUT     0000   74     200/  8/ 11 1022.6
BEAUFORT LAB     2342   74 74  200/ 10/ 13 1021.9
30 SE NEW RVR IN 2308   74     210/ 10/ 12 1022.9
30 SE NEW RVR IN 2343      73                N/A     3/ 6
27 SE WRIGHTSVLE 2308   75 74  200/ 12/ 17 1022.2
5 SE WRIGHTSVLE  2308   74 72  190/  8/ 12 1022.2
225 S CAPE HAT   2350   75 76  160/ 10/ 10 1024.8    3/ 7   3/ 7
41 SE CHARLESTON 2350   76 76  180/  8/ 12 1022.1    3/ 6   3/ 6

$$




USA.gov is the U.S. government's official web portal to all federal, state and local government web resources and services.